Retour au catalogue

STARLINK-6279

ActifCommunicationsVLEO
NORAD 56411·PAYLOAD·🇺🇸 United States

Lancé May 4, 2023 depuis Cape Canaveral Space Force Station

Loading…

Prochains Passages (prochaines 24 heures)

TLE

FraisSource: CelesTrak SupGP

Époque: Sep 15, 2026, 01:46 UTC

1 56411C 23061AP  26258.07409722 -.00027676  00000+0 -10027-2 0  2582
2 56411  42.9994 197.7839 0000829 258.8391 153.0511 15.27584886    16

Suivez STARLINK-6279 en temps réel avec AllMySat

Download on the App Store